Location: Wayland
(32.6094°N, 98.8289°W)
Time: 14:26:00
(UTC+00:00)

Envisat - Visible Passes

Search period start: 22 July 2024 00:00
Search period end: 01 August 2024 00:00
Orbit: 762 x 764 km, 98.3° (Epoch: 22 July)

Date Brightness Start Highest point End Pass type
(mag) Time Alt. Az. Time Alt. Az. Time Alt. Az.
22 Jul 4.7 08:54:04 10° NE 08:58:11 25° E 08:59:50 21° SE visible
22 Jul 4.0 10:32:42 10° N 10:37:04 30° WNW 10:39:59 17° WSW visible
23 Jul 2.9 09:54:49 10° N 09:59:52 73° WNW 10:02:06 34° SSW visible
24 Jul 3.8 09:17:38 10° NNE 09:22:29 45° E 09:24:13 33° SE visible
24 Jul 4.7 10:57:49 10° NNW 11:01:02 17° WNW 11:04:15 10° WSW visible
25 Jul 5.1 08:41:29 10° NE 08:44:55 18° E 08:46:19 16° ESE visible
25 Jul 3.6 10:19:15 10° N 10:23:57 40° WNW 10:26:28 24° SW visible
26 Jul 3.0 09:41:36 10° NNE 09:46:41 82° ESE 09:48:34 40° S visible
27 Jul 4.3 09:04:42 10° NE 09:09:14 32° E 09:10:40 28° SE visible
27 Jul 4.3 10:44:02 10° NNW 10:47:57 23° WNW 10:50:49 15° WSW visible
28 Jul 5.4 08:29:19 10° ENE 08:31:36 13° E 08:32:45 12° ESE visible
28 Jul 3.1 10:05:52 10° N 10:10:49 55° WNW 10:12:55 32° SW visible
29 Jul 3.3 09:28:28 10° NNE 09:33:29 59° E 09:35:01 41° SSE visible
29 Jul 4.9 11:09:34 10° NW 11:11:52 13° WNW 11:14:09 10° W visible
30 Jul 4.7 08:51:54 10° NE 08:55:58 24° E 08:57:06 22° ESE visible
30 Jul 3.9 10:30:26 10° N 10:34:51 31° WNW 10:37:15 21° WSW visible
31 Jul 2.9 09:52:34 10° N 09:57:38 76° WNW 09:59:21 42° SSW visible
